Waarnemingen

Advertentie
Mijn weer
Beauvechain, België (6458): temperatuur & dauwpunt: 11.10.2018 06:00:00 - 17.10.2018 06:00:00 (CEST)Beauvechain, België (6458): windsnelheid & windstoten: 11.10.2018 06:00:00 - 17.10.2018 06:00:00 (CEST)Beauvechain, België (6458): windrichting: 11.10.2018 06:00:00 - 17.10.2018 06:00:00 (CEST)Beauvechain, België (6458): luchtdruk: 11.10.2018 06:00:00 - 17.10.2018 06:00:00 (CEST)Beauvechain, België (6458): zicht: 11.10.2018 06:00:00 - 17.10.2018 06:00:00 (CEST)
Datum & Tijd tt [°C] td [°C] ff [km/u] ff [kn] fx [km/u] fx [kn] dd ppp [hPa] vv [km]
17.10.2018 06:00:00 - - - - - - - - -
17.10.2018 05:00:00 12,8 9,6 7 4 - - ZW 1018,7 11
17.10.2018 04:00:00 13,1 9,6 4 2 25 14 N 1019,0 15
17.10.2018 03:00:00 15,1 9,4 4 2 11 6 N 1018,5 18
17.10.2018 02:00:00 12,5 9,7 4 2 - - N 1018,7 11
17.10.2018 01:00:00 16,0 10,2 4 2 11 6 N 1018,5 17
17.10.2018 00:00:00 15,7 10,3 7 4 11 6 ZW 1018,8 15
16.10.2018 23:00:00 17,6 10,2 4 2 - - N 1018,8 19
16.10.2018 22:00:00 18,2 9,8 4 2 7 4 N 1018,7 20
16.10.2018 21:00:00 19,2 9,2 4 2 7 4 N 1018,7 20
16.10.2018 20:00:00 20,6 8,9 4 2 - - N 1018,6 20
16.10.2018 19:00:00 21,3 9,5 4 2 7 4 N 1018,0 20
16.10.2018 18:00:00 22,7 9,8 4 2 7 4 N 1017,7 20
16.10.2018 17:00:00 23,8 9,3 4 2 - - N 1017,7 20
16.10.2018 16:00:00 23,6 8,4 7 4 14 8 OZO 1017,8 20
16.10.2018 15:00:00 22,7 9,7 7 4 14 8 O 1017,7 20
16.10.2018 14:00:00 23,9 9,0 7 4 - - OZO 1018,0 20
16.10.2018 13:00:00 22,8 10,2 7 4 14 8 OZO 1018,3 25
16.10.2018 12:00:00 21,5 8,5 4 2 11 6 N 1018,6 25
16.10.2018 11:00:00 19,3 9,4 7 4 - - N 1018,6 25
16.10.2018 10:00:00 16,5 8,3 4 2 4 2 N 1018,7 25
16.10.2018 09:00:00 13,0 7,9 4 2 4 2 N 1018,5 15
16.10.2018 08:00:00 13,0 7,9 4 2 - - N 1017,8 20
16.10.2018 07:00:00 14,6 7,8 4 2 7 4 N 1017,5 20
16.10.2018 06:00:00 15,1 8,0 7 4 18 10 ZZW 1017,3 20
16.10.2018 05:00:00 11,1 8,3 4 2 - - N 1017,6 15
16.10.2018 04:00:00 14,9 8,2 4 2 4 2 N 1016,8 20
16.10.2018 03:00:00 14,1 8,5 4 2 4 2 N 1016,8 20
16.10.2018 02:00:00 16,3 8,2 4 2 - - N 1016,2 20
16.10.2018 01:00:00 16,1 8,2 0 0 0 0 N 1016,0 20
16.10.2018 00:00:00 18,2 8,0 4 2 4 2 N 1015,7 20
15.10.2018 23:00:00 17,7 8,3 4 2 - - N 1015,5 20
15.10.2018 22:00:00 18,7 8,0 4 2 0 0 N 1015,0 20
15.10.2018 21:00:00 18,3 8,2 4 2 7 4 N 1014,9 20
15.10.2018 20:00:00 19,4 8,5 4 2 - - N 1014,5 20
15.10.2018 19:00:00 20,1 9,6 4 2 11 6 N 1014,0 20
15.10.2018 18:00:00 22,3 9,3 7 4 25 14 ZZW 1013,2 20
15.10.2018 17:00:00 23,5 9,3 11 6 - - ZZW 1012,6 20
15.10.2018 16:00:00 23,2 9,0 11 6 25 14 Z 1012,2 20
15.10.2018 15:00:00 22,6 9,3 14 8 25 14 Z 1012,2 20
15.10.2018 14:00:00 20,5 9,7 11 6 - - ZZW 1012,5 20
15.10.2018 13:00:00 21,0 9,6 22 12 29 16 ZZW 1012,6 20
15.10.2018 12:00:00 19,6 9,8 14 8 22 12 Z 1012,2 20
15.10.2018 11:00:00 18,6 9,4 14 8 - - Z 1012,0 20
15.10.2018 10:00:00 18,4 9,3 14 8 22 12 Z 1011,5 20
15.10.2018 09:00:00 17,7 8,9 14 8 22 12 Z 1010,7 20
15.10.2018 08:00:00 17,5 8,6 14 8 - - Z 1010,3 20
15.10.2018 07:00:00 16,8 7,9 14 8 25 14 Z 1009,7 20
15.10.2018 06:00:00 17,3 7,5 18 10 25 14 Z 1009,5 20
15.10.2018 05:00:00 17,1 7,8 14 8 - - Z 1009,2 20
15.10.2018 04:00:00 17,5 7,7 11 6 22 12 Z 1009,2 20
15.10.2018 03:00:00 17,1 8,2 14 8 25 14 ZZO 1009,2 20
15.10.2018 02:00:00 17,6 8,5 14 8 - - Z 1009,2 20
15.10.2018 01:00:00 17,7 8,7 14 8 22 12 ZZO 1008,7 20
15.10.2018 00:00:00 18,0 9,1 14 8 22 12 ZZO 1008,5 20
14.10.2018 23:00:00 18,1 9,5 11 6 - - ZZO 1008,6 20
14.10.2018 22:00:00 18,5 9,6 7 4 14 8 ZZO 1008,2 20
14.10.2018 21:00:00 19,1 9,9 7 4 11 6 ZO 1008,0 20
14.10.2018 20:00:00 19,7 10,1 7 4 - - ZO 1007,6 20
14.10.2018 19:00:00 20,7 10,3 7 4 11 6 ZZO 1007,5 20
14.10.2018 18:00:00 22,5 10,1 11 6 29 16 Z 1007,1 20
14.10.2018 17:00:00 23,3 9,3 18 10 - - Z 1007,0 20
14.10.2018 16:00:00 23,8 8,1 25 14 40 21 Z 1006,8 20
14.10.2018 15:00:00 23,4 8,7 25 14 40 21 Z 1007,0 20
14.10.2018 14:00:00 22,7 8,8 22 12 - - Z 1007,6 20
14.10.2018 13:00:00 22,1 8,6 22 12 36 19 Z 1007,8 20
14.10.2018 12:00:00 20,7 10,0 22 12 36 19 Z 1008,3 20
14.10.2018 11:00:00 18,9 11,1 18 10 - - Z 1008,8 20
14.10.2018 10:00:00 17,7 10,9 14 8 29 16 Z 1009,2 20
14.10.2018 09:00:00 16,5 10,6 18 10 25 14 Z 1009,1 20
14.10.2018 08:00:00 15,8 10,3 7 4 - - Z 1009,2 20
14.10.2018 07:00:00 15,5 10,5 14 8 25 14 ZZO 1009,5 20
14.10.2018 06:00:00 16,2 10,6 14 8 25 14 Z 1009,8 20
14.10.2018 05:00:00 16,7 10,8 18 10 - - ZZO 1010,0 20
14.10.2018 04:00:00 17,0 11,0 14 8 22 12 ZZO 1010,6 20
14.10.2018 03:00:00 17,2 11,2 11 6 22 12 ZZO 1011,5 20
14.10.2018 02:00:00 18,2 11,3 14 8 - - ZZO 1011,8 20
14.10.2018 01:00:00 17,9 11,6 14 8 22 12 ZZO 1012,7 20
14.10.2018 00:00:00 18,7 11,5 11 6 14 8 ZZO 1013,2 20
13.10.2018 23:00:00 19,0 11,8 7 4 - - ZZO 1013,5 20
13.10.2018 22:00:00 19,7 11,8 11 6 14 8 Z 1013,7 20
13.10.2018 21:00:00 20,3 12,4 7 4 11 6 ZZO 1013,3 20
13.10.2018 20:00:00 21,0 13,3 7 4 - - ZO 1013,7 20
13.10.2018 19:00:00 22,0 13,5 4 2 14 8 N 1014,0 20
13.10.2018 18:00:00 23,4 13,3 7 4 25 14 Z 1014,0 20
13.10.2018 17:00:00 24,5 13,3 14 8 - - Z 1014,7 19
13.10.2018 16:00:00 24,6 13,9 14 8 29 16 Z 1015,2 20
13.10.2018 15:00:00 24,6 14,3 18 10 32 18 Z 1015,8 20
13.10.2018 14:00:00 24,1 14,3 18 10 - - Z 1016,7 20
13.10.2018 13:00:00 23,1 14,5 22 12 32 18 Z 1017,7 20
13.10.2018 12:00:00 21,7 14,3 18 10 32 18 ZZO 1018,2 20
13.10.2018 11:00:00 20,0 13,7 18 10 - - Z 1018,8 20
13.10.2018 10:00:00 18,7 13,1 22 12 32 18 ZZO 1018,8 20
13.10.2018 09:00:00 17,7 12,9 22 12 32 18 ZZO 1018,7 20
13.10.2018 08:00:00 17,0 12,9 18 10 - - ZZO 1018,8 20
13.10.2018 07:00:00 17,1 13,2 14 8 25 14 ZZO 1019,0 20
13.10.2018 06:00:00 17,2 13,3 14 8 22 12 ZZO 1019,3 20
13.10.2018 05:00:00 17,6 13,4 11 6 - - Z 1019,7 20
13.10.2018 04:00:00 18,0 13,3 14 8 22 12 Z 1019,7 20
13.10.2018 03:00:00 17,8 13,2 14 8 22 12 Z 1019,5 20
13.10.2018 02:00:00 18,4 13,1 14 8 - - Z 1019,3 20
13.10.2018 01:00:00 19,0 13,0 14 8 25 14 Z 1019,3 20
13.10.2018 00:00:00 18,9 12,9 14 8 22 12 ZZO 1019,6 20
12.10.2018 23:00:00 19,2 13,1 14 8 - - ZZO 1019,7 20
12.10.2018 22:00:00 20,1 13,2 14 8 22 12 Z 1019,7 20
12.10.2018 21:00:00 20,3 13,5 14 8 18 10 Z 1019,5 20
12.10.2018 20:00:00 20,7 13,9 14 8 - - Z 1019,0 20
12.10.2018 19:00:00 20,9 14,8 7 4 25 14 Z 1018,7 20
12.10.2018 18:00:00 22,2 14,9 18 10 29 16 Z 1018,5 20
12.10.2018 17:00:00 22,5 15,1 18 10 - - Z 1018,6 20
12.10.2018 16:00:00 22,5 15,4 18 10 36 19 Z 1018,5 20
12.10.2018 15:00:00 22,2 14,9 22 12 32 18 Z 1018,5 20
12.10.2018 14:00:00 21,3 15,3 18 10 - - Z 1018,6 20
12.10.2018 13:00:00 20,3 14,9 22 12 32 18 Z 1018,6 20
12.10.2018 12:00:00 19,7 15,1 22 12 36 19 Z 1018,5 20
12.10.2018 11:00:00 18,7 14,6 22 12 - - Z 1018,7 20
12.10.2018 10:00:00 16,7 13,6 11 6 18 10 Z 1018,3 20
12.10.2018 09:00:00 15,3 13,1 14 8 22 12 Z 1018,2 20
12.10.2018 08:00:00 15,6 13,4 11 6 - - Z 1017,6 20
12.10.2018 07:00:00 15,5 13,1 18 10 25 14 ZZW 1016,5 20
12.10.2018 06:00:00 14,8 12,8 11 6 18 10 Z 1016,2 20
12.10.2018 05:00:00 15,1 13,1 11 6 - - Z 1015,6 20
12.10.2018 04:00:00 15,5 13,3 11 6 22 12 Z 1014,8 20
12.10.2018 03:00:00 16,2 14,3 14 8 25 14 Z 1014,3 20
12.10.2018 02:00:00 16,2 14,4 18 10 - - Z 1014,0 20
12.10.2018 01:00:00 15,6 14,5 18 10 58 31 Z 1013,7 10
12.10.2018 00:00:00 18,5 11,5 18 10 25 14 Z 1012,2 20
11.10.2018 23:00:00 18,5 11,7 18 10 - - ZZO 1011,7 20
11.10.2018 22:00:00 18,1 12,0 14 8 22 12 ZZO 1011,7 20
11.10.2018 21:00:00 18,9 12,4 11 6 18 10 ZZO 1011,5 20
11.10.2018 20:00:00 19,3 12,6 11 6 - - ZZO 1011,6 20
11.10.2018 19:00:00 20,5 12,9 11 6 18 10 Z 1011,2 20
11.10.2018 18:00:00 22,7 12,7 11 6 25 14 ZZO 1010,3 20
11.10.2018 17:00:00 23,0 12,8 18 10 - - Z 1010,2 20
11.10.2018 16:00:00 23,0 12,4 22 12 36 19 Z 1010,0 20
11.10.2018 15:00:00 22,7 12,1 18 10 32 18 Z 1010,2 20
11.10.2018 14:00:00 22,0 12,1 18 10 - - Z 1010,5 20
11.10.2018 13:00:00 21,9 12,9 14 8 32 18 Z 1010,7 20
11.10.2018 12:00:00 19,8 12,5 18 10 29 16 Z 1011,1 20
11.10.2018 11:00:00 17,5 12,1 14 8 - - Z 1011,6 20
11.10.2018 10:00:00 17,1 12,2 14 8 32 18 Z 1011,5 20
11.10.2018 09:00:00 17,7 12,0 25 14 43 23 ZZW 1011,1 20
11.10.2018 08:00:00 17,1 11,3 18 10 - - Z 1010,8 20
11.10.2018 07:00:00 16,8 11,2 14 8 25 14 Z 1010,7 20
11.10.2018 06:00:00 16,5 11,6 14 8 22 12 ZZO 1010,3 20

tt = temperatuur
td = dauwpunt
ff = windsnelheid
fx = windstoten
dd = windrichting
ppp = luchtdruk
vv = zicht

Weerstations in de omgeving